Terminal Aerodrome Forecast
Issued by NWS San Angelo, TX

Home | Current Version | Previous Version | Text Only | Print | Product List | Glossary On
Versions: 1 2 3 4 5 6 7 8 9 10 11 12 13 14 15 16 17 18 19 20 21 22 23 24
613
FTUS44 KSJT 190534
TAFSJT
TAF
KSJT 190534Z 1906/2006 11005KT P6SM SKC
     FM191800 07008KT P6SM SCT080
     FM192300 08007KT P6SM BKN250=

USA.gov is the U.S. government's official web portal to all federal, state and local government web resources and services.